Back to catalog

STARLINK-34887

AliveCommunicationsVLEO
NORAD 65103·PAYLOAD·🇺🇸 United States

Launched Aug 4, 2025 from Cape Canaveral Space Force Station

Loading…

Next Passes (next 24 hours)

TLE

FreshSource: CelesTrak SupGP

Epoch: Sep 14, 2026, 21:08 UTC

1 65103C 25167AB  26257.88104167  .00039164  00000+0  11569-2 0  2576
2 65103  53.1583 224.1587 0001385  89.5477  80.7509 15.34375681    11

Track STARLINK-34887 in real time with AllMySat

Download on the App Store